Flag for Germany Weather past 2 weeks in Gifhorn, Lower Saxony, Germany

Now
50 °F

Passing clouds.


Feels Like: 50 °F
Forecast: 54 / 77 °F
Wind: 2 mph from Northeast

Location: Celle Airport

Current Time: Aug 1, 2015 at 2:26:35 AM

Latest Report: Aug 1, 2015 at 12:20 AM


Visibility: N/A

Pressure: 30.09 "Hg

Humidity: 88%

Dew point: 46 °F

Location of GifhornLocation

Historic Weather in Gifhorn — Graph

°F

Gifhorn temperature yesterday

Maximum temperature yesterday: 66 °F (at 5:20 PM)
Minimum temperature yesterday: 50 °F (at 4:20 AM)
Average temperature yesterday: 57 °F

Past Weeks' High & Low Weather Summary

 TemperatureHumidityPressure
High90 °F (Jul 17, 3:20 PM)100% (Jul 19, 11:20 AM)30.12 "Hg (Jul 19, 11:20 AM)
Low50 °F (Jul 31, 4:20 AM)29% (Jul 17, 5:20 PM)29.47 "Hg (Jul 25, 1:20 PM)
Average64 °F72%29.83 "Hg
* Reported Jul 17 12:20 AM — Aug 1 12:20 AM, Gifhorn, Weather by CustomWeather, © 2015

Note: Actual official high and low records may vary slightly from our data, if they occured in-between our weather recording intervals... More about our weather records

Advertising

Gifhorn weather history for previous 24 hours

 ConditionsComfort  
Time TempWeatherWind HumidityBarometerVisibility
12:20 AM
Sat, Aug 1
50 °FPassing clouds.2 mph88%30.09 "HgN/A
11:20 PM
Fri, Jul 31
52 °FPassing clouds.1 mph82%30.07 "HgN/A
10:20 PM54 °FPassing clouds.No wind77%30.07 "HgN/A
9:20 PM57 °FScattered clouds.1 mph72%30.07 "HgN/A
8:20 PM63 °FScattered clouds.5 mph49%30.07 "HgN/A
7:20 PM63 °FScattered clouds.3 mph49%30.07 "HgN/A
6:20 PM64 °FScattered clouds.7 mph49%30.07 "HgN/A
5:20 PM66 °FScattered clouds.3 mph43%30.09 "HgN/A
4:20 PM63 °FScattered clouds.5 mph45%30.09 "HgN/A
3:20 PM63 °FScattered clouds.7 mph49%30.09 "HgN/A
2:20 PM61 °FPartly sunny.8 mph52%30.09 "HgN/A
1:20 PM61 °FPartly sunny.10 mph52%30.12 "HgN/A
12:20 PM59 °FScattered clouds.12 mph55%30.09 "HgN/A
11:20 AM59 °FScattered clouds.7 mph55%30.09 "HgN/A
9:20 AM57 °FScattered clouds.9 mph67%30.09 "HgN/A
8:20 AM54 °FPartly sunny.8 mph82%30.09 "HgN/A
7:20 AM52 °FPartly sunny.8 mph82%30.07 "HgN/A
6:20 AM50 °FPassing clouds.8 mph88%30.07 "HgN/A
5:20 AM50 °FPassing clouds.5 mph88%30.04 "HgN/A
4:20 AM50 °FPassing clouds.6 mph88%30.04 "HgN/A
3:20 AM52 °FPassing clouds.7 mph82%30.04 "HgN/A
2:20 AM52 °FPassing clouds.8 mph82%30.04 "HgN/A
Weather by CustomWeather, © 2015

See weather overviewHow to use our weather pages